Regional Weather Roundup
Issued by NWS

Home | Current Version | Previous Version | Text Only | Print | Product List | Glossary On
Versions: 1 2 3 4 5 6 7 8 9 10 11 12 13 14 15 16 17 18 19 20 21 22 23 24 25 26 27 28 29 30 31 32 33 34 35 36 37 38 39 40 41 42 43 44 45 46 47 48 49 50
000
ASUS46 KLOX 051112
RWRCA

SOUTHERN CALIFORNIA WEATHER ROUNDUP
NATIONAL WEATHER SERVICE OXNARD CALIFORNIA
300 AM PST THU MAR 05 2015

NOTE: "FAIR" INDICATES FEW OR NO CLOUDS BELOW 12,000 FEET WITH NO
SIGNIFICANT WEATHER AND/OR OBSTRUCTIONS TO VISIBILITY.

  -  STATIONS PRECEEDED BY AN ASTERISK (*) ARE NOT NWS OR FAA
     STATIONS AND ARE NOT SUBJECT TO NWS AND FAA QUALITY CONTROL.

CAZ041-042-087-051200-
LA AND ORANGE COUNTY COASTAL AREAS


CITY           SKY/WX    TMP DP  RH WIND       PRES   REMARKS
L.A. DOWNTOWN  CLEAR     54  33  45 NE3       30.17S
L.A. AIRPORT   PTCLDY    51  36  56 NE5       30.17S
LONG BEACH     CLEAR     50  42  74 CALM      30.17S

CITY           SKY/WX    TMP DP  RH WIND       PRES   REMARKS
AVALON           N/A    N/A N/A N/A MISG        N/A
FULLERTON      CLEAR     50  36  58 CALM      30.16S
*GETTY CENTER    N/A     59  12  15 N12         N/A
HAWTHORNE      CLEAR     53  38  56 CALM      30.17S
*LEO CARRILLO    N/A     57  21  24 NE2         N/A
*LOS ALAMITOS  FAIR      46  39  77 SW2       30.17S
*REDONDO BEACH   N/A     48  43  82 CALM      30.18R
SANTA ANA      CLEAR     53  40  61 CALM      30.16S
STA MONICA APT CLEAR     50  33  52 E5        30.17S
*STA MON PIER    N/A     54  31  42 S6        30.16S
*UCLA            N/A     55  18  22 NE5       30.15R

$$

CAZ547-548-048-051200-
LA COUNTY VALLEYS AND INLAND EMPIRE


CITY           SKY/WX    TMP DP  RH WIND       PRES   REMARKS
BURBANK        CLEAR     48  29  47 CALM      30.17S
VAN NUYS       CLEAR     48  30  49 CALM      30.17S

CITY           SKY/WX    TMP DP  RH WIND       PRES   REMARKS
CORONA AIRPORT SUNNY     47  29  50 SE9       30.18F
*CHATSWORTH      N/A     53  22  29 CALM      30.18S
CHINO          CLEAR     39  35  86 CALM      30.19F
MARCH AFB      CLEAR     34  26  72 S3        30.17F
*NORTHRIDGE      N/A     50  21  32 SE1         N/A
ONTARIO        MOCLDY    49  33  54 NE3       30.17F
*PASADENA        N/A     52  32  46 CALM        N/A
RIVERSIDE      CLEAR     47  27  45 NE6       30.18F
SAN BERNARDINO NOT AVBL
*SAN RAFAEL HI   N/A     58   9  14 SW2         N/A
*WHITEMAN AP   NOT AVBL
*WHITTIER HILL   N/A     56  29  35 NE10        N/A

$$

CAZ054-055-051200-
LA AND SAN BERNARDINO COUNTY MOUNTAINS


CITY           SKY/WX    TMP DP  RH WIND       PRES   REMARKS
*BIG BEAR AIRP SUNNY     18  10  73 CALM      30.27F
SANDBERG       CLEAR     43  10  26 NE16      30.24F

$$

CAZ028-029-059-060-099-051200-
ANTELOPE VALLEY AND SURROUNDING AREAS


CITY           SKY/WX    TMP DP  RH WIND       PRES   REMARKS
LANCASTER      CLEAR     29  21  72 W6        30.27S WCI  23
PALMDALE       CLEAR     32  21  64 SW6       30.27S WCI  26
*POPPY PARK      N/A     35  22  59 W3          N/A

CITY           SKY/WX    TMP DP  RH WIND       PRES   REMARKS
29 PALMS       CLEAR     41  22  46 CALM      30.33
BARSTOW/DAGGET CLEAR     36  21  54 W7        30.26F WCI  30
BISHOP         PTCLDY    22   1  40 NW7       30.31S WCI  13
CHINA LAKE     CLEAR     32  25  75 S8        30.27  WCI  25
EDWARDS AFB    CLEAR     33  20  58 CALM      30.25S
MOJAVE         FAIR      36  23  60 N9        30.27S WCI  29
NEEDLES        NOT AVBL
VICTORVILLE      N/A     30  14  51 S5        30.26S WCI  25

$$

CAZ039-040-051200-
VENTURA AND SANTA BARBARA COUNTY COAST


CITY           SKY/WX    TMP DP  RH WIND       PRES   REMARKS
CAMARILLO      CLEAR     48  29  47 NE8       30.17S
OXNARD AIRPORT CLEAR     48  31  51 NE6       30.16F
*POINT MUGU    CLEAR     56  30  37 NE9       30.17
SBA APT/GOLETA CLEAR     44  39  82 CALM      30.17S
*SANTA BARBARA   N/A     48  37  66 CALM      30.25S
*VENTURA         N/A     48  26  41 N3        30.20S

$$

CAZ044-045-051200-
VENTURA COUNTY VALLEYS


CITY           SKY/WX    TMP DP  RH WIND       PRES   REMARKS
*SIMI VALLEY     N/A     57  20  24 NE17      30.15S
*OJAI            N/A     34  31  88 CALM      30.16S
*FILLMORE        N/A     55  27  34 CALM      30.07F

$$

CAZ053-051200-
VENTURA COUNTY MOUNTAINS


CITY           SKY/WX    TMP DP  RH WIND       PRES   REMARKS
*LOCKWOOD VLY    N/A     21  14  73 MISG        N/A
*ROSE VALLEY     N/A     23  23 100 MISG        N/A

$$

CAZ034-035-036-051200-
CENTRAL COAST AND SANTA YNEZ VALLEY


CITY           SKY/WX    TMP DP  RH WIND       PRES   REMARKS
SAN LUIS OBISP CLEAR     43  38  82 MISG      30.19S
SANTA MARIA    CLEAR     44  38  79 E3        30.19S

CITY           SKY/WX    TMP DP  RH WIND       PRES   REMARKS
*CAL POLY SLO    N/A     46  41  81 SE1         N/A
*LOMPOC        CLEAR     41  34  75 E5        30.19S
*PISMO BEACH     N/A     48  40  75 NE2       30.19S
*SANTA YNEZ    FAIR      37  32  81 CALM      30.20S

$$

CAZ037-038-051-051200-
SAN LUIS OBISPO COUNTY INTERIOR AND CUYAMA VALLEY


CITY           SKY/WX    TMP DP  RH WIND       PRES   REMARKS
*CUYAMA          N/A     36  31  82 CALM      30.25S
PASO ROBLES    CLEAR     41  37  86 NE3       30.24S

$$

CAZ032-033-061-051200-
SOUTHERN DESERTS


CITY           SKY/WX    TMP DP  RH WIND       PRES   REMARKS
BLYTHE         CLEAR     50  33  52 SW3       30.21F
IMPERIAL       CLEAR     45  35  68 W7        30.18S
PALM SPRINGS   CLEAR     57  21  24 W6        30.22F
THERMAL        CLEAR     42  29  59 NW3       30.19S

$$

ELSEWHERE ACROSS THE WESTERN UNITED STATES AND MEXICO


CITY           SKY/WX    TMP DP  RH WIND       PRES   REMARKS
DENVER, CO     PTCLDY    16   0  49 S17       30.14F WCI   0
GRAND CANYON,  PTCLDY     7   4  87 NE6       30.31S WCI  -3
HONOLULU, HI   LGT RAIN  72  66  83 NW6       29.99F
KAHULUI, MAUI  LGT RAIN  70  66  88 N18G25    29.99R
LAKE TAHOE, CA CLEAR     20  14  77 S6        30.32S WCI  12
LAS VEGAS, NV  CLEAR     43  28  55 SW6       30.27S
MAMMOTH LAKES, FAIR      18   7  62 N6        30.33S WCI   9
MEXICO CITY, M PTCLDY    59  41  51 NE5       30.28R
PHOENIX, AZ    CLEAR     50  38  63 CALM      30.18R
PORTLAND, OR   PTCLDY    33  29  85 CALM      30.32R
RENO, NV       CLEAR     30  19  63 CALM      30.34S
SALT LAKE CITY PTCLDY    28  18  66 SE9       30.37R WCI  19
SAN DIEGO, CA  PTCLDY    53  40  61 N5        30.17F
SAN FRANCISCO, CLEAR     50  42  74 CALM      30.24S
SAN JOSE, CA   CLEAR     45  35  68 SE3       30.24F
SEATTLE, WA    MOCLDY    39  28  64 CALM      30.30F
TIJUANA, MEX   CLEAR     48  36  61 E3        30.18F

$$

STATION/POSITION TIME  TEMP    WIND        PRES    VSBY  WAVE
                       AIR SEA DIR/SP/G                  HT/PER
                 (UTC) (F)     (DEG/KT/KT) (MB)    (MI)  (FT/S)
POINT ARGUELLO B NOT AVBL
WEST SANTA BARBA 1100   58 59  310/  4/  4 1021.2S         5/15
POINT CONCEPTION NOT AVBL
EAST SANTA BARBA NOT AVBL
SANTA MONICA BAY 1100   61 61   70/ 10/ 12 1021.3F         3/15


USA.gov is the U.S. government's official web portal to all federal, state and local government web resources and services.